Time,TemperatureF,DewpointF,PressureIn,WindDirection,WindDirectionDegrees,WindSpeedMPH,WindSpeedGustMPH,Humidity,HourlyPrecipIn,Conditions,Clouds,dailyrainin,SoftwareType,DateUTC
2013-02-12 16:04:00,33.5,26.1,29.88,West,265,8.0,8.0,74,0.00,,,0.00,Wunderground v.1.15,2013-02-12 21:04:00,
2013-02-12 16:10:00,33.3,26.2,29.88,West,265,9.0,9.0,75,0.00,,,0.00,Wunderground v.1.15,2013-02-12 21:10:00,
2013-02-12 16:20:00,32.9,26.5,29.88,West,264,6.0,6.0,77,0.00,,,0.00,Wunderground v.1.15,2013-02-12 21:20:00,
2013-02-12 16:29:00,32.7,26.3,29.89,West,276,6.0,6.0,77,0.00,,,0.00,Wunderground v.1.15,2013-02-12 21:29:00,
2013-02-12 16:40:00,32.8,26.1,29.90,WNW,282,6.0,6.0,76,0.00,,,0.00,Wunderground v.1.15,2013-02-12 21:40:00,
2013-02-12 16:50:00,32.7,26.0,29.89,West,263,5.0,5.0,76,0.00,,,0.00,Wunderground v.1.15,2013-02-12 21:50:00,
2013-02-12 17:00:00,32.6,25.9,29.89,WSW,250,6.0,18.0,76,0.00,,,0.00,Wunderground v.1.15,2013-02-12 22:00:00,
2013-02-12 17:10:00,32.6,25.6,29.90,SW,222,7.0,7.0,75,0.00,,,0.00,Wunderground v.1.15,2013-02-12 22:10:00,
2013-02-12 17:20:00,32.6,25.6,29.90,West,271,6.0,18.0,75,0.00,,,0.00,Wunderground v.1.15,2013-02-12 22:20:00,
2013-02-12 17:30:00,32.4,26.0,29.91,SW,232,5.0,18.0,77,0.00,,,0.00,Wunderground v.1.15,2013-02-12 22:30:00,
2013-02-12 17:40:00,31.9,26.4,29.92,SW,236,7.0,18.0,80,0.00,,,0.00,Wunderground v.1.15,2013-02-12 22:40:00,
2013-02-12 17:50:00,31.7,26.2,29.92,WSW,248,6.0,18.0,80,0.00,,,0.00,Wunderground v.1.15,2013-02-12 22:50:00,
2013-02-12 18:00:00,31.7,26.2,29.92,SSW,205,5.0,18.0,80,0.00,,,0.00,Wunderground v.1.15,2013-02-12 23:00:00,
2013-02-12 18:10:00,31.8,26.0,29.93,SW,235,6.0,6.0,79,0.00,,,0.00,Wunderground v.1.15,2013-02-12 23:10:00,
2013-02-12 18:20:00,31.8,26.0,29.93,WSW,254,5.0,5.0,79,0.00,,,0.00,Wunderground v.1.15,2013-02-12 23:20:00,
2013-02-12 18:30:00,31.9,25.8,29.93,West,267,5.0,18.0,78,0.00,,,0.00,Wunderground v.1.15,2013-02-12 23:30:00,
2013-02-12 18:40:00,31.9,25.8,29.94,West,269,6.0,6.0,78,0.00,,,0.00,Wunderground v.1.15,2013-02-12 23:40:00,
2013-02-12 18:50:00,32.0,25.9,29.95,WSW,246,6.0,18.0,78,0.00,,,0.00,Wunderground v.1.15,2013-02-12 23:50:00,
2013-02-12 19:00:00,32.0,25.6,29.94,WSW,242,6.0,6.0,77,0.00,,,0.00,Wunderground v.1.15,2013-02-13 00:00:00,
2013-02-12 19:10:00,32.0,25.6,29.95,West,267,6.0,6.0,77,0.00,,,0.00,Wunderground v.1.15,2013-02-13 00:10:00,
2013-02-12 19:20:00,32.1,25.7,29.96,WSW,253,5.0,5.0,77,0.00,,,0.00,Wunderground v.1.15,2013-02-13 00:20:00,
2013-02-12 19:31:00,32.0,25.6,29.96,WSW,251,5.0,5.0,77,0.00,,,0.00,Wunderground v.1.15,2013-02-13 00:31:00,
2013-02-12 19:41:00,32.0,25.9,29.96,West,263,4.0,18.0,78,0.00,,,0.00,Wunderground v.1.15,2013-02-13 00:41:00,
2013-02-12 19:51:00,32.1,25.7,29.96,WSW,242,5.0,18.0,77,0.00,,,0.00,Wunderground v.1.15,2013-02-13 00:51:00,
2013-02-12 19:59:00,32.1,25.7,29.97,WSW,240,4.0,18.0,77,0.00,,,0.00,Wunderground v.1.15,2013-02-13 00:59:00,
2013-02-12 20:10:00,32.0,25.6,29.96,SSW,212,4.0,18.0,77,0.00,,,0.00,Wunderground v.1.15,2013-02-13 01:10:00,
2013-02-12 20:20:00,32.1,25.7,29.96,West,270,5.0,5.0,77,0.00,,,0.00,Wunderground v.1.15,2013-02-13 01:20:00,
2013-02-12 20:30:00,32.1,25.4,29.96,West,261,5.0,18.0,76,0.00,,,0.00,Wunderground v.1.15,2013-02-13 01:30:00,
2013-02-12 20:40:00,32.1,25.7,29.96,SW,225,5.0,18.0,77,0.00,,,0.00,Wunderground v.1.15,2013-02-13 01:40:00,
2013-02-12 20:50:00,32.1,25.7,29.96,West,265,5.0,18.0,77,0.00,,,0.00,Wunderground v.1.15,2013-02-13 01:50:00,
2013-02-12 21:00:00,32.0,25.6,29.96,West,277,3.0,3.0,77,0.00,,,0.00,Wunderground v.1.15,2013-02-13 02:00:00,
2013-02-12 21:10:00,32.0,25.6,29.95,WSW,248,4.0,18.0,77,0.00,,,0.00,Wunderground v.1.15,2013-02-13 02:10:00,
2013-02-12 21:20:00,31.9,25.5,29.95,West,274,3.0,18.0,77,0.00,,,0.00,Wunderground v.1.15,2013-02-13 02:20:00,
2013-02-12 21:30:00,32.0,25.3,29.95,West,271,4.0,18.0,76,0.00,,,0.00,Wunderground v.1.15,2013-02-13 02:30:00,
2013-02-12 21:40:00,32.1,25.4,29.95,WNW,299,5.0,5.0,76,0.00,,,0.00,Wunderground v.1.15,2013-02-13 02:40:00,
2013-02-12 21:50:00,32.1,25.4,29.94,West,261,3.0,18.0,76,0.00,,,0.00,Wunderground v.1.15,2013-02-13 02:50:00,
2013-02-12 22:00:00,32.1,25.1,29.93,NW,309,4.0,4.0,75,0.00,,,0.00,Wunderground v.1.15,2013-02-13 03:00:00,
2013-02-12 22:10:00,32.0,25.0,29.93,West,277,3.0,3.0,75,0.00,,,0.00,Wunderground v.1.15,2013-02-13 03:10:00,
2013-02-12 22:20:00,31.9,25.2,29.92,WSW,250,3.0,3.0,76,0.00,,,0.00,Wunderground v.1.15,2013-02-13 03:20:00,
2013-02-12 22:30:00,31.9,25.2,29.92,WSW,253,4.0,18.0,76,0.00,,,0.00,Wunderground v.1.15,2013-02-13 03:30:00,
2013-02-12 22:40:00,31.9,25.2,29.92,WSW,257,4.0,18.0,76,0.00,,,0.00,Wunderground v.1.15,2013-02-13 03:40:00,
2013-02-12 22:50:00,32.0,25.3,29.92,WSW,252,4.0,4.0,76,0.00,,,0.00,Wunderground v.1.15,2013-02-13 03:50:00,
2013-02-12 23:00:00,32.0,25.3,29.92,WSW,241,4.0,18.0,76,0.00,,,0.00,Wunderground v.1.15,2013-02-13 04:00:00,
2013-02-12 23:10:00,32.0,25.3,29.92,West,270,4.0,18.0,76,0.00,,,0.00,Wunderground v.1.15,2013-02-13 04:10:00,
2013-02-12 23:20:00,32.0,25.3,29.92,WSW,257,5.0,18.0,76,0.00,,,0.00,Wunderground v.1.15,2013-02-13 04:20:00,
2013-02-12 23:30:00,32.1,25.1,29.92,West,269,8.0,8.0,75,0.00,,,0.00,Wunderground v.1.15,2013-02-13 04:30:00,
2013-02-12 23:40:00,32.2,25.2,29.92,NNW,343,7.0,7.0,75,0.00,,,0.00,Wunderground v.1.15,2013-02-13 04:40:00,
2013-02-12 23:50:00,32.1,25.4,29.92,WSW,252,4.0,18.0,76,0.00,,,0.00,Wunderground v.1.15,2013-02-13 04:50:00,